COSMOS 2361 1 25590U 98076A 24289.79989889 .00000174 00000-0 17130-3 0 9990 2 25590 82.9303 296.8045 0031563 4.4479 168.5690 13.73147929293069 COSMOS 2378 1 26818U 01023A 24289.85192994 .00000151 00000-0 14466-3 0 9994 2 26818 82.9250 313.2141 0031811 306.0336 227.8286 13.74077413171150 COSMOS 2389 1 27436U 02026A 24289.68556677 .00000140 00000-0 12916-3 0 9994 2 27436 82.9476 260.0788 0046838 158.8291 18.4780 13.75090407123341 COSMOS 2398 1 27818U 03023A 24289.90901748 .00000124 00000-0 11920-3 0 9990 2 27818 82.9499 224.2624 0030545 205.0163 199.2914 13.72324043 70174 COSMOS 2407 1 28380U 04028A 24289.90435162 .00000147 00000-0 13440-3 0 9997 2 28380 82.9625 166.0357 0039634 154.6317 217.2212 13.76243422 16070 COSMOS 2414 1 28521U 05002A 24289.12186139 .00000203 00000-0 15722-3 0 9996 2 28521 82.9488 145.0577 0038825 269.1632 90.5083 13.87815497999222 COSMOS 2429 1 32052U 07038A 24289.75535604 .00000147 00000-0 13670-3 0 9992 2 32052 82.9766 295.0372 0039457 135.8658 224.5658 13.75082123857895 COSMOS 2454 1 35635U 09039A 24289.73873764 .00000177 00000-0 13115-3 0 9992 2 35635 82.9533 129.3560 0018672 199.3058 209.5130 13.89842458772748 COSMOS 2463 1 36519U 10017A 24289.88872831 .00000142 00000-0 14051-3 0 9994 2 36519 82.9621 337.3862 0036606 22.9428 150.7791 13.71587704724404